Weather History for Alliance, NE

Change the Weather History Date:

Monday, August 4, 2014

  Actual Average Record
Temperature  
Mean Temperature 76 °F 73 °F  
Max Temperature 96 °F 89 °F 102 °F (1947)
Min Temperature 56 °F 57 °F 45 °F (1978)
Degree Days  
Heating Degree Days 0 0  
Month to date heating degree days 0 0  
Since 1 June heating degree days 126 105  
Since 1 July heating degree days 27 12  
Cooling Degree Days 11 8  
Month to date cooling degree days 29 32  
Year to date cooling degree days 301 364  
Since 1 June cooling degree days 287 354  
Growing Degree Days 26 (Base 50)    
Moisture  
Dew Point 52 °F    
Average Humidity 55    
Maximum Humidity 93    
Minimum Humidity 17    
Precipitation  
Precipitation 0.00 in 0.06 in 1.68 in (2011)
Month to date precipitation 0.00 0.25  
Year to date precipitation 12.35 10.96  
Sea Level Pressure  
Sea Level Pressure 29.94 in    
Wind  
Wind Speed 11 mph (SE)    
Max Wind Speed 25 mph    
Max Gust Speed 33 mph    
Visibility 10 miles    
Events      
T = Trace of Precipitation, MM = Missing Value Source: NWS Daily Summary

Daily Weather History Graph

Daily Weather History Graph

Search for Another Location

Airport:

Trip Planner

Search our weather history database for the weather conditions in past years. The results will help you decide how hot, cold, wet, or windy it might be!

Date:

Astronomy

Aug. 04, 2014 Rise Set
Actual Time 5:47 AM MDT 8:06 PM MDT
Civil Twilight 5:16 AM MDT 8:37 PM MDT
Nautical Twilight 4:37 AM MDT 9:15 PM MDT
Astronomical Twilight 3:54 AM MDT 9:58 PM MDT
Moon 2:20 PM MDT (8/4) No Moon Set
Length of Visible Light 15h 21m
Length of Day
14h 18m
First Quarter, 58% of the Moon is Illuminated
Aug 4
First Quarter
Aug 10
Full
Aug 17
Last Quarter
Aug 25
New
Sep 2
First Quarter

Hourly Weather History & Observations

Time (MDT) Temp. Heat Index Dew Point Humidity Pressure Visibility Wind Dir Wind Speed Gust Speed Precip Events Conditions
12:53 AM 68.0 °F - 55.0 °F 63% 29.95 in 10.0 mi SSE 11.5 mph - N/A   Clear
1:53 AM 63.0 °F - 55.0 °F 75% 29.94 in 10.0 mi SSE 8.1 mph - N/A   Clear
3:53 AM 57.2 °F - 55.4 °F 94% 30.08 in 10.0 mi SE 5.8 mph - N/A   Clear
4:53 AM 59.0 °F - 55.0 °F 87% 29.93 in 10.0 mi SSE 8.1 mph - N/A   Clear
5:53 AM 57.2 °F - 53.6 °F 88% 30.08 in 10.0 mi SE 8.1 mph - N/A   Clear
6:53 AM 61.0 °F - 55.0 °F 81% 29.96 in 10.0 mi East 5.8 mph - N/A   Clear
7:53 AM 69.1 °F - 55.0 °F 61% 29.96 in 10.0 mi ESE 9.2 mph - N/A   Clear
8:53 AM 75.9 °F - 54.0 °F 46% 29.97 in 10.0 mi SE 13.8 mph - N/A   Clear
9:53 AM 81.0 °F 80.4 °F 53.1 °F 38% 29.95 in 10.0 mi SSE 10.4 mph - N/A   Clear
10:53 AM 84.0 °F 82.6 °F 54.0 °F 35% 29.96 in 10.0 mi SSE 12.7 mph - N/A   Clear
11:53 AM 89.1 °F 86.9 °F 54.0 °F 30% 29.94 in 10.0 mi SSE 13.8 mph 24.2 mph N/A   Clear
12:53 PM 91.0 °F - 52.0 °F 26% 29.91 in 10.0 mi SSE 13.8 mph 24.2 mph N/A   Clear
1:53 PM 91.0 °F - 48.0 °F 23% 29.91 in 10.0 mi South 17.3 mph 23.0 mph N/A   Clear
2:53 PM 95.0 °F - 46.9 °F 19% 29.88 in 10.0 mi SSE 17.3 mph 23.0 mph N/A   Clear
3:53 PM 93.9 °F - 43.0 °F 17% 29.87 in 10.0 mi SSE 8.1 mph - N/A   Clear
4:53 PM 93.0 °F - 42.1 °F 17% 29.87 in 10.0 mi South 12.7 mph - N/A   Clear
5:53 PM 91.0 °F - 43.0 °F 19% 29.87 in 10.0 mi SSE 16.1 mph - N/A   Clear
6:53 PM 87.1 °F - 44.1 °F 22% 29.89 in 10.0 mi SSE 9.2 mph - N/A   Clear
7:33 PM 78.1 °F - 53.1 °F 42% 30.05 in 10.0 mi NNW 16.1 mph 32.2 mph N/A   Mostly Cloudy
7:53 PM 75.9 °F - 54.0 °F 46% 29.93 in 10.0 mi North 18.4 mph 28.8 mph N/A   Partly Cloudy
8:53 PM 73.0 °F - 55.0 °F 53% 29.93 in 10.0 mi North 13.8 mph - N/A   Clear
9:53 PM 73.9 °F - 51.1 °F 45% 29.92 in 10.0 mi NE 10.4 mph - N/A   Clear
10:53 PM 72.0 °F - 54.0 °F 53% 29.92 in 10.0 mi NNE 10.4 mph - N/A   Clear
11:53 PM 70.0 °F - 60.1 °F 71% 29.89 in 10.0 mi NNE 10.4 mph - N/A   Clear